GALAXY 35 (G-35)

Last updated on Mon Sep 07 2026 00:03:02 GMT+0000 (Coordinated Universal Time)

1 54741U 22170A 26249.57336159 -.00000178 00000+0 00000+0 0 9990 2 54741 0.0085 194.5862 0001977 341.2289 283.1528 1.00270186 13710
UTC large
Height (km)
Speed (km/s)
/
Latitude / Longitude
Inclination (degrees)
Orbital Period (minutes)
Azimuth
Elevation
Range (km)
Doppler Factor

Next 0 passes for location: London (51.5072 / 0.1276)

No passes found over London.
GALAXY 35 (G-35)